Flag for Russia Weather past 2 weeks in Novorossiysk, Russia

Now
50 °F

Fog.


Feels Like: 45 °F
Forecast: 40 / 52 °F
Wind: 13 mph from Southwest

Location: Anapa / Vitiazevo

Current Time: Apr 2, 2015 at 3:33:11 AM

Latest Report: Apr 2, 2015 at 3:00 AM


Visibility: 3 mi

Pressure: 29.71 "Hg

Humidity: 94%

Dew point: 48 °F

Location of NovorossiyskLocation

Historic Weather in Novorossiysk — Graph

°F

Novorossiysk temperature yesterday

Maximum temperature yesterday: 54 °F (at 12:00 PM)
Minimum temperature yesterday: 48 °F (at 1:00 AM)
Average temperature yesterday: 50 °F

Past Weeks' High & Low Weather Summary

 TemperatureHumidityPressure
High70 °F (Mar 27, 11:30 AM)100% (Mar 21, 5:00 AM)30.36 "Hg (Mar 21, 5:00 AM)
Low27 °F (Mar 24, 11:00 PM)28% (Mar 27, 10:30 AM)29.68 "Hg (Mar 28, 6:00 PM)
Average48 °F76%29.99 "Hg
* Reported Mar 18 2:00 AM — Apr 2 2:00 AM, Novorossiysk, Weather by CustomWeather, © 2015

Note: Actual official high and low records may vary slightly from our data, if they occured in-between our weather recording intervals... More about our weather records

Advertising

Novorossiysk weather history for previous 24 hours

 ConditionsComfort  
Time TempWeatherWind HumidityBarometerVisibility
2:00 AM
Thu, Apr 2
50 °FMostly cloudy.13 mph94%29.71 "HgN/A
1:00 AM50 °FMostly cloudy.15 mph94%29.74 "Hg4 mi
12:00 AM52 °FMostly cloudy.15 mph88%29.74 "HgN/A
11:00 PM
Wed, Apr 1
50 °FLight rain. Mostly cloudy.10 mph88%29.74 "HgN/A
10:00 PM50 °FClear.13 mph88%29.74 "Hg10 mi
9:00 PM50 °FMostly cloudy.13 mph88%29.74 "HgN/A
8:00 PM50 °FMostly cloudy.13 mph88%29.74 "HgN/A
7:00 PM52 °FLight rain. More clouds than sun.13 mph77%29.74 "HgN/A
6:00 PM50 °FLight rain. Mostly cloudy.8 mph88%29.77 "HgN/A
5:30 PM50 °FLight rain. More clouds than sun.15 mph94%29.77 "Hg5 mi
5:00 PM50 °FLight rain. More clouds than sun.15 mph94%29.77 "Hg4 mi
4:30 PM50 °FLight rain. Mostly cloudy.15 mph94%29.80 "HgN/A
4:00 PM50 °FMore clouds than sun.20 mph88%29.80 "HgN/A
3:30 PM52 °FMore clouds than sun.17 mph82%29.77 "HgN/A
3:00 PM54 °FMore clouds than sun.15 mph77%29.77 "HgN/A
2:30 PM54 °FMore clouds than sun.17 mph77%29.77 "HgN/A
2:00 PM54 °FMore clouds than sun.17 mph77%29.77 "HgN/A
1:30 PM54 °FMore clouds than sun.17 mph77%29.77 "HgN/A
1:00 PM52 °FCloudy.17 mph82%29.77 "HgN/A
12:30 PM54 °FCloudy.15 mph82%29.77 "Hg5 mi
12:00 PM54 °FCloudy.17 mph88%29.77 "Hg4 mi
11:30 AM50 °FFog.13 mph94%29.77 "Hg2 mi
11:00 AM50 °FDrizzle. Fog.13 mph94%29.77 "Hg1 mi
10:30 AM50 °FDrizzle. Fog.10 mph94%29.77 "Hg1 mi
10:00 AM50 °FMostly cloudy.13 mph94%29.77 "Hg5 mi
9:30 AM50 °FMostly cloudy.10 mph94%29.74 "Hg5 mi
9:00 AM50 °FFog.13 mph94%29.74 "Hg3 mi
8:30 AM48 °FLow clouds.15 mph94%29.77 "HgN/A
8:00 AM50 °FDrizzle. Fog.13 mph94%29.74 "Hg1 mi
7:30 AM50 °FFog.13 mph94%29.74 "Hg2 mi
7:00 AM50 °FLow clouds.10 mph94%29.74 "HgN/A
6:30 AM48 °FMostly cloudy.10 mph94%29.71 "HgN/A
6:00 AM48 °FPartly cloudy.8 mph94%29.71 "HgN/A
5:00 AM48 °FCool.8 mph94%29.71 "HgN/A
4:00 AM48 °FClear.10 mph87%29.71 "Hg10 mi
3:00 AM48 °FSprinkles. Partly cloudy.10 mph94%29.74 "HgN/A
Weather by CustomWeather, © 2015

See weather overviewHow to use our weather pages